Welcome to Northern Hawkes Bay. New Zealand.
PWS Header
      nz Flag



Hit Counter


W3C Valid W3C Valid logo


    Wairoa

Select any of the Stations below to visit their websites.










Historic Data from Weather Underground
Select the location of interest below. Wairoa is the default. Please have patience, this Data is slow to load in.
Northern Hawkes Bay Historical Data
Daily Summary for July 22, 2017 Units:  English    Metric   Both
« Previous Day
Next Day »
Daily Weekly Monthly Yearly Custom
  High: Low: Average:
Temperature: 60.6 °F 51.1 °F 55.6 °F
Dew Point: 53.1 °F 41.4 °F 47.3 °F
Humidity: 96% 56% 75%
Wind Speed: 15.9mph 0mph 5.5mph
Wind Gust: 25.9mph - -
Wind- - SW
Pressure: 29.5 in 29.1 in -
Precipitation: 0.26 in    
Historical Graphs
 
 
Tabular Data for July 22, 2017
Time Temperature Dew Point Pressure Wind Wind Speed Wind Gust Humidity Rainfall Rate (Hourly) solar
00:02 53.4 °F 42.1 °F 29.1 in NNW 6 mph 9.8 mph 65% 0 in 0 W/m2
00:07 53.8 °F 41.9 °F 29.1 in NNW 3.1 mph 12.1 mph 64% 0 in 0 W/m2
00:12 53.8 °F 41.5 °F 29.1 in NNW 3.1 mph 14.5 mph 63% 0 in 0 W/m2
00:17 53.8 °F 41.5 °F 29.1 in North 6 mph 14.5 mph 63% 0 in 0 W/m2
00:37 53.8 °F 41.5 °F 29.1 in North 2.2 mph 15.9 mph 63% 0 in 0 W/m2
00:42 53.2 °F 41.4 °F 29.1 in North 4.5 mph 8.3 mph 64% 0 in 0 W/m2
00:47 53.4 °F 42.1 °F 29.1 in NNE 4.5 mph 8.3 mph 65% 0 in 0 W/m2
00:52 53.4 °F 42.1 °F 29.1 in North 5.4 mph 10.7 mph 65% 0 in 0 W/m2
00:57 53.8 °F 41.5 °F 29.1 in North 5.4 mph 11.4 mph 63% 0 in 0 W/m2
01:02 54 °F 41.7 °F 29.1 in North 9.2 mph 15.9 mph 63% 0 in 0 W/m2
01:07 54.3 °F 42.1 °F 29.1 in NNW 6 mph 15.9 mph 63% 0 in 0 W/m2
01:12 54.7 °F 41.9 °F 29.1 in NNW 12.1 mph 18.3 mph 62% 0 in 0 W/m2
01:17 55.2 °F 42.1 °F 29.1 in NNW 12.1 mph 18.3 mph 61% 0 in 0 W/m2
01:22 55.4 °F 42.3 °F 29.1 in NNW 6 mph 18.3 mph 61% 0 in 0 W/m2
01:27 55.6 °F 42.4 °F 29.1 in NNW 12.1 mph 19.7 mph 61% 0 in 0 W/m2
01:32 55.6 °F 41.9 °F 29.1 in NNW 8.3 mph 19.7 mph 60% 0 in 0 W/m2
01:37 55.8 °F 42.1 °F 29.1 in NNW 6 mph 14.5 mph 60% 0 in 0 W/m2
01:42 55.2 °F 42.4 °F 29.1 in North 9.8 mph 14.5 mph 62% 0 in 0 W/m2
01:47 55.4 °F 42.3 °F 29.1 in North 5.4 mph 15.2 mph 61% 0 in 0 W/m2
01:52 55.6 °F 41.9 °F 29.1 in North 7.6 mph 15.9 mph 60% 0 in 0 W/m2
01:57 55.9 °F 42.3 °F 29.1 in North 6 mph 15.9 mph 60% 0 in 0 W/m2
02:02 55.8 °F 42.1 °F 29.1 in North 3.8 mph 13.6 mph 60% 0 in 0 W/m2
02:07 55.4 °F 42.3 °F 29.1 in NNW 6 mph 10.7 mph 61% 0 in 0 W/m2
02:17 55.4 °F 42.3 °F 29.1 in NNW 4.5 mph 10.7 mph 61% 0 in 0 W/m2
02:22 55.8 °F 42.1 °F 29.1 in NNW 6.9 mph 15.2 mph 60% 0 in 0 W/m2
02:27 56.3 °F 42.3 °F 29.1 in NNW 12.1 mph 19.7 mph 59% 0 in 0 W/m2
02:32 56.5 °F 42.3 °F 29.1 in NNW 9.8 mph 19.7 mph 59% 0 in 0 W/m2
02:37 56.5 °F 42.3 °F 29.1 in NNW 6.9 mph 19.7 mph 59% 0 in 0 W/m2
02:42 56.5 °F 42.3 °F 29.1 in NNW 3.8 mph 15.9 mph 59% 0 in 0 W/m2
02:47 56.5 °F 42.3 °F 29.1 in NNW 4.5 mph 15.9 mph 59% 0 in 0 W/m2
02:52 56.8 °F 42.6 °F 29.1 in NNW 10.7 mph 21.3 mph 59% 0 in 0 W/m2
02:57 57.2 °F 42.1 °F 29.1 in NW 9.8 mph 21.3 mph 57% 0 in 0 W/m2
03:02 57 °F 42.4 °F 29.1 in NNW 4.5 mph 18.3 mph 58% 0 in 0 W/m2
03:07 57.2 °F 42.1 °F 29.1 in North 5.4 mph 14.5 mph 57% 0 in 0 W/m2
03:12 57 °F 42.8 °F 29.1 in NW 5.4 mph 13.6 mph 59% 0 in 0 W/m2
03:17 57.4 °F 42.3 °F 29.1 in NW 15.2 mph 20.6 mph 57% 0 in 0 W/m2
03:22 57.4 °F 42.3 °F 29.1 in NNW 6.9 mph 20.6 mph 57% 0 in 0 W/m2
03:27 57 °F 42.8 °F 29.1 in NNW 6.9 mph 20.6 mph 59% 0 in 0 W/m2
03:32 57.2 °F 42.6 °F 29.1 in NNW 6.9 mph 17.4 mph 58% 0 in 0 W/m2
03:37 56.8 °F 42.6 °F 29.1 in NNW 5.4 mph 17.4 mph 59% 0 in 0 W/m2
03:42 56.8 °F 42.3 °F 29.1 in North 6.9 mph 12.1 mph 58% 0 in 0 W/m2
03:47 57 °F 41.9 °F 29.1 in North 8.3 mph 17.4 mph 57% 0 in 0 W/m2
03:52 57.4 °F 41.7 °F 29.1 in North 4.5 mph 19 mph 56% 0 in 0 W/m2
03:57 57.4 °F 41.7 °F 29.1 in North 7.6 mph 19 mph 56% 0 in 0 W/m2
04:02 57.4 °F 41.7 °F 29.1 in NNW 5.4 mph 15.9 mph 56% 0 in 0 W/m2
04:07 56.8 °F 41.7 °F 29.1 in North 5.4 mph 13 mph 57% 0 in 0 W/m2
04:12 56.5 °F 41.9 °F 29.1 in North 3.1 mph 9.2 mph 58% 0 in 0 W/m2
04:17 56.3 °F 42.3 °F 29.1 in NNE 3.1 mph 9.2 mph 59% 0 in 0 W/m2
04:22 56.3 °F 42.6 °F 29.1 in NNE 3.1 mph 6.9 mph 60% 0 in 0 W/m2
04:27 56.1 °F 43 °F 29.1 in North 5.4 mph 7.6 mph 61% 0 in 0 W/m2
04:32 56.3 °F 43 °F 29.1 in North 3.1 mph 9.8 mph 61% 0 in 0 W/m2
04:37 56.3 °F 43 °F 29.1 in North 3.1 mph 9.8 mph 61% 0 in 0 W/m2
04:42 56.1 °F 43.3 °F 29.1 in North 4.5 mph 8.3 mph 62% 0 in 0 W/m2
04:47 56.3 °F 43.5 °F 29.1 in North 2.2 mph 8.3 mph 62% 0 in 0 W/m2
04:52 56.3 °F 43 °F 29.1 in North 3.1 mph 12.1 mph 61% 0 in 0 W/m2
04:57 56.3 °F 43.5 °F 29.1 in North 1.6 mph 12.1 mph 62% 0 in 0 W/m2
05:02 56.1 °F 43.3 °F 29.1 in NNE 2.2 mph 7.6 mph 62% 0 in 0 W/m2
05:07 56.1 °F 43.3 °F 29.1 in NNE 3.8 mph 9.2 mph 62% 0 in 0 W/m2
05:12 56.5 °F 43.5 °F 29.1 in North 6 mph 11.4 mph 62% 0 in 0 W/m2
05:17 56.8 °F 43.5 °F 29.1 in North 3.1 mph 16.8 mph 61% 0 in 0 W/m2
05:23 56.5 °F 43.2 °F 29.1 in NNE 4.5 mph 16.8 mph 61% 0 in 0 W/m2
05:28 56.5 °F 43.2 °F 29.1 in NNE 1.6 mph 9.2 mph 61% 0 in 0 W/m2
05:33 55.9 °F 43.5 °F 29.1 in North 3.1 mph 8.3 mph 63% 0 in 0 W/m2
05:38 55.9 °F 43.5 °F 29.1 in North 3.1 mph 8.3 mph 63% 0 in 0 W/m2
05:43 55.9 °F 43.5 °F 29.1 in NNE 4.5 mph 9.8 mph 63% 0 in 0 W/m2
05:49 56.3 °F 43.9 °F 29.1 in North 4.5 mph 11.4 mph 63% 0 in 0 W/m2
05:54 56.3 °F 43.9 °F 29.1 in North 4.5 mph 11.4 mph 63% 0 in 0 W/m2
05:59 56.3 °F 44.2 °F 29.1 in NNE 3.8 mph 8.3 mph 64% 0 in 0 W/m2
06:04 56.1 °F 44.4 °F 29.1 in NNE 4.5 mph 8.3 mph 65% 0 in 0 W/m2
06:09 56.3 °F 44.8 °F 29.1 in NNE 2.2 mph 9.8 mph 65% 0 in 0 W/m2
06:14 56.3 °F 44.8 °F 29.1 in North 3.8 mph 9.8 mph 65% 0 in 0 W/m2
06:19 56.3 °F 44.8 °F 29.1 in NNE 2.2 mph 7.6 mph 65% 0 in 0 W/m2
06:24 56.5 °F 45.3 °F 29.1 in NNE 2.2 mph 9.2 mph 66% 0 in 0 W/m2
06:29 56.5 °F 45.3 °F 29.1 in NNE 3.8 mph 9.2 mph 66% 0 in 0 W/m2
06:34 56.5 °F 45 °F 29.1 in NNE 5.4 mph 9.8 mph 65% 0 in 0 W/m2
06:39 56.5 °F 45 °F 29.1 in NNE 3.8 mph 10.7 mph 65% 0 in 0 W/m2
06:44 56.5 °F 45 °F 29.1 in NNE 3.8 mph 10.7 mph 65% 0 in 0 W/m2
06:49 56.5 °F 45 °F 29.1 in NNE 5.4 mph 10.7 mph 65% 0 in 0 W/m2
06:54 56.5 °F 45 °F 29.1 in NNE 3.8 mph 9.2 mph 65% 0 in 0 W/m2
06:59 56.5 °F 44.4 °F 29.1 in North 4.5 mph 9.2 mph 64% 0 in 0 W/m2
07:04 56.5 °F 44.4 °F 29.1 in North 5.4 mph 9.2 mph 64% 0 in 0 W/m2
07:09 56.8 °F 44.8 °F 29.1 in North 5.4 mph 10.7 mph 64% 0 in 0 W/m2
07:14 56.5 °F 45 °F 29.1 in North 3.8 mph 10.7 mph 65% 0 in 0 W/m2
07:19 56.5 °F 45 °F 29.1 in North 2.2 mph 8.3 mph 65% 0 in 0 W/m2
07:24 56.5 °F 45 °F 29.1 in North 4.5 mph 9.2 mph 65% 0 in 0 W/m2
07:29 56.5 °F 45 °F 29.1 in North 2.2 mph 9.2 mph 65% 0 in 0 W/m2
07:34 56.5 °F 45 °F 29.1 in North 4.5 mph 8.3 mph 65% 0 in 0 W/m2
07:39 56.5 °F 45 °F 29.1 in North 6.9 mph 11.4 mph 65% 0 in 0 W/m2
07:44 56.8 °F 44.8 °F 29.1 in North 1.6 mph 11.4 mph 64% 0 in 1 W/m2
07:49 56.5 °F 45 °F 29.1 in NNW 5.4 mph 10.7 mph 65% 0 in 2 W/m2
07:54 56.8 °F 44.8 °F 29.1 in North 6.9 mph 11.4 mph 64% 0 in 4 W/m2
07:59 57 °F 45 °F 29.1 in North 5.4 mph 11.4 mph 64% 0 in 6 W/m2
08:04 57.4 °F 44.4 °F 29.1 in NNW 3.8 mph 13 mph 62% 0 in 8 W/m2
08:09 57.6 °F 44.8 °F 29.1 in North 5.4 mph 13 mph 62% 0 in 10 W/m2
08:14 57.4 °F 44.1 °F 29.1 in North 3.8 mph 11.4 mph 61% 0 in 12 W/m2
08:19 57.4 °F 44.4 °F 29.1 in North 3.1 mph 11.4 mph 62% 0 in 16 W/m2
08:24 57.4 °F 44.4 °F 29.1 in North 3.8 mph 9.8 mph 62% 0 in 20 W/m2
08:29 57.4 °F 44.4 °F 29.1 in North 3.8 mph 9.8 mph 62% 0 in 24 W/m2
08:34 57 °F 45 °F 29.1 in North 1.6 mph 9.8 mph 64% 0 in 29 W/m2
08:39 56.8 °F 44.8 °F 29.1 in North 1.6 mph 6 mph 64% 0 in 32 W/m2
08:44 56.8 °F 44.8 °F 29.1 in North 3.8 mph 6.9 mph 64% 0 in 33 W/m2
08:49 57 °F 45.3 °F 29.1 in NNE 3.8 mph 6.9 mph 65% 0 in 33 W/m2
08:54 57 °F 45.3 °F 29.1 in North 3.1 mph 7.6 mph 65% 0 in 34 W/m2
08:59 57.2 °F 45.1 °F 29.1 in NNW 2.2 mph 7.6 mph 64% 0 in 37 W/m2
09:04 57.4 °F 45.3 °F 29.1 in North 5.4 mph 8.3 mph 64% 0 in 41 W/m2
09:09 57.7 °F 45.7 °F 29.1 in North 6.9 mph 11.4 mph 64% 0 in 45 W/m2
09:14 57.9 °F 45.9 °F 29.1 in North 3.8 mph 11.4 mph 64% 0 in 49 W/m2
09:19 58.1 °F 46 °F 29.1 in North 5.4 mph 13 mph 64% 0 in 53 W/m2
09:24 58.1 °F 46 °F 29.1 in North 4.5 mph 13 mph 64% 0 in 60 W/m2
09:29 58.1 °F 46 °F 29.1 in North 9.2 mph 11.4 mph 64% 0 in 66 W/m2
09:34 58.1 °F 46.4 °F 29.1 in North 7.6 mph 14.5 mph 65% 0 in 67 W/m2
09:39 58.3 °F 46.6 °F 29.1 in North 7.6 mph 14.5 mph 65% 0 in 65 W/m2
09:44 58.3 °F 46.6 °F 29.1 in North 5.4 mph 15.9 mph 65% 0 in 64 W/m2
09:49 58.1 °F 46.4 °F 29.1 in North 8.3 mph 15.9 mph 65% 0 in 67 W/m2
09:54 58.1 °F 46.4 °F 29.1 in North 7.6 mph 15.2 mph 65% 0 in 70 W/m2
09:59 58.1 °F 46.4 °F 29.1 in North 6.9 mph 14.5 mph 65% 0 in 73 W/m2
10:04 57.9 °F 46.6 °F 29.1 in North 5.4 mph 14.5 mph 66% 0 in 76 W/m2
10:09 58.1 °F 46.8 °F 29.1 in NNE 4.5 mph 12.1 mph 66% 0 in 84 W/m2
10:14 58.1 °F 46.8 °F 29.1 in NNE 3.1 mph 12.1 mph 66% 0 in 90 W/m2
10:19 58.3 °F 46.9 °F 29.1 in NNE 6 mph 8.3 mph 66% 0 in 87 W/m2
10:24 58.5 °F 47.1 °F 29.1 in NNE 3.8 mph 7.6 mph 66% 0 in 91 W/m2
10:29 58.8 °F 47.5 °F 29.1 in North 2.2 mph 7.6 mph 66% 0 in 103 W/m2
10:34 59 °F 47.3 °F 29.1 in NNW 2.2 mph 6 mph 65% 0 in 104 W/m2
10:39 59.2 °F 47.5 °F 29.1 in NNW 1.6 mph 6 mph 65% 0 in 117 W/m2
10:49 59.5 °F 47.8 °F 29.1 in NW 1.6 mph 3.8 mph 65% 0 in 103 W/m2
10:54 59.7 °F 47.5 °F 29.1 in Calm   3.8 mph 64% 0 in 93 W/m2
11:00 60.1 °F 47.8 °F 29.1 in Calm   3.8 mph 64% 0 in 108 W/m2
11:06 60.4 °F 48.2 °F 29.1 in Calm   1.6 mph 64% 0 in 102 W/m2
11:11 60.6 °F 48.4 °F 29.1 in Calm   1.6 mph 64% 0 in 106 W/m2
11:16 60.4 °F 47.8 °F 29.1 in SW 1.6 mph 3.8 mph 63% 0 in 113 W/m2
11:21 60.3 °F 48 °F 29.1 in Calm   3.8 mph 64% 0 in 95 W/m2
11:26 60.3 °F 48 °F 29.1 in Calm   2.2 mph 64% 0 in 79 W/m2
11:31 60.1 °F 47.8 °F 29.1 in Calm   1.6 mph 64% 0 in 66 W/m2
11:36 59.9 °F 47.7 °F 29.1 in West 0.7 mph 1.6 mph 64% 0 in 72 W/m2
11:41 59.7 °F 47.8 °F 29.1 in Calm   1.6 mph 65% 0 in 83 W/m2
11:46 59.9 °F 48 °F 29.1 in Calm   1.6 mph 65% 0 in 83 W/m2
11:51 59.9 °F 48 °F 29.1 in Calm   0.7 mph 65% 0 in 80 W/m2
11:56 59.9 °F 48 °F 29.1 in Calm   1.6 mph 65% 0 in 74 W/m2
12:01 59.9 °F 48 °F 29.1 in Calm   1.6 mph 65% 0 in 72 W/m2
12:06 59.7 °F 47.8 °F 29.1 in North 1.6 mph 2.2 mph 65% 0 in 72 W/m2
12:09 59.5 °F 47.8 °F 29.1 in Calm   2.2 mph 65% 0 in 71 W/m2
12:14 59.7 °F 48.4 °F 29.1 in Calm   2.2 mph 66% 0 in 70 W/m2
12:19 59.5 °F 48.2 °F 29.1 in Calm   2.2 mph 66% 0 in 69 W/m2
12:24 59.5 °F 48.6 °F 29.1 in Calm   2.2 mph 67% 0 in 69 W/m2
12:29 59.4 °F 48.4 °F 29.1 in Calm   3.1 mph 67% 0 in 71 W/m2
12:34 59.4 °F 48.7 °F 29.1 in North 0.7 mph 3.1 mph 68% 0 in 61 W/m2
12:39 59.4 °F 48.4 °F 29.1 in North 1.6 mph 3.1 mph 67% 0 in 58 W/m2
12:44 59.4 °F 48 °F 29.1 in Calm   3.1 mph 66% 0 in 62 W/m2
12:49 59.4 °F 48.4 °F 29.1 in Calm   3.1 mph 67% 0 in 61 W/m2
12:54 59.4 °F 48.4 °F 29.1 in Calm   1.6 mph 67% 0 in 61 W/m2
12:59 59.4 °F 48.7 °F 29.1 in Calm   1.6 mph 68% 0 in 58 W/m2
13:04 59.2 °F 48.9 °F 29.1 in NW 0.7 mph 3.1 mph 69% 0 in 55 W/m2
13:09 59 °F 49.3 °F 29.1 in Calm   3.1 mph 70% 0 in 58 W/m2
13:14 58.8 °F 50.2 °F 29.1 in Calm   2.2 mph 73% 0 in 65 W/m2
13:19 58.6 °F 50.4 °F 29.1 in North 0.7 mph 1.6 mph 74% 0 in 68 W/m2
13:24 58.3 °F 50.4 °F 29.1 in Calm   1.6 mph 75% 0.01 in 69 W/m2
13:29 58.3 °F 50.7 °F 29.1 in Calm   1.6 mph 76% 0.01 in 68 W/m2
13:34 57.9 °F 50.7 °F 29.1 in Calm   3.1 mph 77% 0.01 in 69 W/m2
13:39 57.9 °F 50.7 °F 29.1 in Calm   3.1 mph 77% 0.01 in 71 W/m2
13:44 57.7 °F 50.9 °F 29.1 in Calm   2.2 mph 78% 0.01 in 69 W/m2
13:49 57.6 °F 51.1 °F 29.1 in Calm   2.2 mph 79% 0.01 in 69 W/m2
13:54 57.7 °F 51.6 °F 29.1 in Calm   2.2 mph 80% 0.01 in 66 W/m2
13:59 57.7 °F 52.3 °F 29.1 in Calm   0.7 mph 82% 0.01 in 69 W/m2
14:04 57.6 °F 52.2 °F 29.1 in Calm   0.7 mph 82% 0.01 in 72 W/m2
14:09 57.7 °F 52.3 °F 29.1 in Calm   0.7 mph 82% 0.01 in 72 W/m2
14:14 57.9 °F 52.9 °F 29.1 in Calm     83% 0.02 in 73 W/m2
14:19 58.1 °F 52.5 °F 29.1 in Calm   0.7 mph 82% 0.02 in 70 W/m2
14:24 58.3 °F 52.9 °F 29.1 in Calm   0.7 mph 82% 0.01 in 69 W/m2
14:29 58.5 °F 53.1 °F 29.1 in Calm     82% 0.01 in 70 W/m2
14:34 58.5 °F 52.7 °F 29.1 in Calm   0.7 mph 81% 0.01 in 75 W/m2
14:39 58.5 °F 53.1 °F 29.1 in Calm   0.7 mph 82% 0.01 in 83 W/m2
14:44 58.3 °F 52.9 °F 29.1 in North 2.2 mph 3.1 mph 82% 0.01 in 93 W/m2
14:49 58.1 °F 52.3 °F 29.1 in North 2.2 mph 3.1 mph 81% 0.01 in 91 W/m2
14:54 57.9 °F 51.8 °F 29.1 in North 1.6 mph 3.1 mph 80% 0.01 in 75 W/m2
14:59 57.7 °F 51.6 °F 29.1 in Calm   3.1 mph 80% 0.01 in 65 W/m2
15:04 57.6 °F 51.4 °F 29.1 in Calm   3.1 mph 80% 0.01 in 67 W/m2
15:09 57.6 °F 51.4 °F 29.1 in NNW 1.6 mph 2.2 mph 80% 0.01 in 70 W/m2
15:14 57.4 °F 51.3 °F 29.1 in NNW 1.6 mph 3.1 mph 80% 0 in 68 W/m2
15:19 57.2 °F 51.4 °F 29.1 in North 2.2 mph 3.8 mph 81% 0 in 67 W/m2
15:24 57.2 °F 51.8 °F 29.1 in North 2.2 mph 3.8 mph 82% 0 in 63 W/m2
15:29 57 °F 52 °F 29.1 in North 1.6 mph 3.8 mph 83% 0 in 56 W/m2
15:34 57 °F 52.2 °F 29.1 in NNW 2.2 mph 3.8 mph 84% 0 in 43 W/m2
15:39 57 °F 52.5 °F 29.1 in NNW 2.2 mph 3.8 mph 85% 0 in 35 W/m2
15:44 56.7 °F 52.2 °F 29.1 in NNW 1.6 mph 3.8 mph 85% 0 in 32 W/m2
15:49 56.7 °F 52.2 °F 29.1 in NNW 1.6 mph 3.8 mph 85% 0 in 27 W/m2
15:54 56.5 °F 52 °F 29.1 in NNW 1.6 mph 3.8 mph 85% 0 in 21 W/m2
15:59 56.3 °F 52 °F 29.1 in Calm   2.2 mph 85% 0 in 17 W/m2
16:04 56.1 °F 51.6 °F 29.2 in Calm   2.2 mph 85% 0 in 14 W/m2
16:09 55.9 °F 51.8 °F 29.2 in WSW 3.1 mph 4.5 mph 86% 0 in 16 W/m2
16:14 55.4 °F 51.6 °F 29.2 in SW 3.8 mph 6 mph 87% 0 in 16 W/m2
16:19 55 °F 51.3 °F 29.2 in SW 5.4 mph 6.9 mph 87% 0.01 in 6 W/m2
16:24 54.5 °F 50.7 °F 29.2 in WSW 2.2 mph 9.2 mph 87% 0.01 in 3 W/m2
16:29 54.3 °F 50.7 °F 29.2 in WSW 3.1 mph 9.2 mph 88% 0.01 in 4 W/m2
16:34 54.1 °F 51.1 °F 29.2 in SW 3.1 mph 6 mph 89% 0.02 in 1 W/m2
16:39 54 °F 51.4 °F 29.2 in SW 6.9 mph 8.3 mph 91% 0.02 in 0 W/m2
16:44 54 °F 51.6 °F 29.2 in SW 5.4 mph 11.4 mph 92% 0.04 in 0 W/m2
16:49 53.8 °F 51.4 °F 29.2 in SW 5.4 mph 11.4 mph 92% 0.04 in 0 W/m2
16:54 53.6 °F 51.3 °F 29.2 in SW 9.2 mph 13 mph 92% 0.05 in 0 W/m2
16:59 53.4 °F 50.9 °F 29.2 in SW 6.9 mph 13 mph 91% 0.05 in 0 W/m2
17:04 53.6 °F 50.4 °F 29.2 in SW 7.6 mph 13 mph 89% 0.06 in 0 W/m2
17:09 53.6 °F 50.4 °F 29.2 in SSW 6.9 mph 14.5 mph 89% 0.06 in 0 W/m2
17:14 53.4 °F 50.9 °F 29.2 in SW 7.6 mph 14.5 mph 91% 0.06 in 0 W/m2
17:19 53.4 °F 50.9 °F 29.2 in SW 6.9 mph 13 mph 91% 0.06 in 0 W/m2
17:24 53.2 °F 51.1 °F 29.2 in SW 9.2 mph 15.9 mph 92% 0.07 in 0 W/m2
17:29 53.2 °F 51.1 °F 29.2 in SSW 7.6 mph 15.9 mph 92% 0.07 in 0 W/m2
17:34 53.1 °F 50.7 °F 29.2 in SSW 11.4 mph 16.8 mph 92% 0.07 in 0 W/m2
17:39 52.9 °F 50.9 °F 29.2 in SSW 11.4 mph 16.8 mph 93% 0.08 in 0 W/m2
17:44 52.7 °F 50.7 °F 29.2 in SSW 10.7 mph 18.3 mph 93% 0.08 in 0 W/m2
17:49 52.7 °F 50.7 °F 29.2 in SSW 9.8 mph 18.3 mph 93% 0.09 in 0 W/m2
17:54 52.7 °F 50.7 °F 29.2 in SSW 6 mph 15.9 mph 93% 0.08 in 0 W/m2
17:59 52.7 °F 50.7 °F 29.2 in South 8.3 mph 13 mph 93% 0.08 in 0 W/m2
18:04 52.7 °F 50.7 °F 29.3 in South 8.3 mph 13.6 mph 93% 0.07 in 0 W/m2
18:09 52.7 °F 50.7 °F 29.3 in SSW 7.6 mph 16.8 mph 93% 0.07 in 0 W/m2
18:14 52.5 °F 50.5 °F 29.3 in SSW 8.3 mph 16.8 mph 93% 0.08 in 0 W/m2
18:19 52.5 °F 50.7 °F 29.3 in SW 6.9 mph 15.9 mph 94% 0.07 in 0 W/m2
18:24 52.3 °F 50.7 °F 29.3 in SW 6.9 mph 15.2 mph 94% 0.06 in 0 W/m2
18:29 52.2 °F 50.5 °F 29.3 in WSW 3.8 mph 13 mph 94% 0.07 in 0 W/m2
18:34 51.8 °F 50.4 °F 29.3 in SW 4.5 mph 13 mph 95% 0.06 in 0 W/m2
18:39 51.8 °F 50.4 °F 29.3 in SW 6 mph 9.2 mph 95% 0.05 in 0 W/m2
18:44 51.8 °F 50.4 °F 29.3 in SW 6 mph 9.2 mph 95% 0.05 in 0 W/m2
18:49 51.8 °F 50.4 °F 29.3 in WSW 5.4 mph 9.2 mph 95% 0.04 in 0 W/m2
18:54 51.8 °F 50.7 °F 29.3 in WSW 3.1 mph 8.3 mph 96% 0.04 in 0 W/m2
18:59 51.8 °F 50.7 °F 29.3 in WSW 3.8 mph 7.6 mph 96% 0.04 in 0 W/m2
19:04 52 °F 50.9 °F 29.3 in West 6.9 mph 9.2 mph 96% 0.04 in 0 W/m2
19:09 52 °F 50.9 °F 29.3 in West 4.5 mph 9.2 mph 96% 0.04 in 0 W/m2
19:14 52.2 °F 51.1 °F 29.3 in West 5.4 mph 13.6 mph 96% 0.02 in 0 W/m2
19:19 52.2 °F 50.7 °F 29.3 in WSW 9.2 mph 15.2 mph 95% 0.02 in 0 W/m2
19:24 52.3 °F 50.4 °F 29.3 in West 3.8 mph 15.2 mph 93% 0.02 in 0 W/m2
19:29 52.2 °F 50.2 °F 29.3 in West 8.3 mph 13.6 mph 93% 0.01 in 0 W/m2
19:34 52.3 °F 50.2 °F 29.3 in WSW 10.7 mph 19 mph 92% 0.01 in 0 W/m2
19:39 52.2 °F 48.9 °F 29.3 in West 9.2 mph 19 mph 89% 0.01 in 0 W/m2
19:44 52 °F 48.7 °F 29.3 in West 7.6 mph 15.9 mph 89% 0 in 0 W/m2
19:49 51.8 °F 48.7 °F 29.3 in WSW 10.7 mph 16.8 mph 89% 0 in 0 W/m2
19:54 51.8 °F 48.7 °F 29.3 in WSW 5.4 mph 16.8 mph 89% 0 in 0 W/m2
19:59 51.6 °F 48.7 °F 29.3 in WSW 4.5 mph 15.2 mph 90% 0.01 in 0 W/m2
20:04 51.6 °F 48.7 °F 29.3 in WSW 7.6 mph 17.4 mph 90% 0.01 in 0 W/m2
20:09 51.8 °F 48.4 °F 29.3 in West 12.1 mph 17.4 mph 88% 0.01 in 0 W/m2
20:14 51.8 °F 48.4 °F 29.3 in WSW 15.2 mph 21.3 mph 88% 0.01 in 0 W/m2
20:19 51.4 °F 48.6 °F 29.3 in SW 7.6 mph 21.3 mph 90% 0.01 in 0 W/m2
20:24 51.4 °F 48.6 °F 29.3 in WSW 11.4 mph 19.7 mph 90% 0.01 in 0 W/m2
20:29 51.6 °F 48.7 °F 29.3 in West 6.9 mph 14.5 mph 90% 0.01 in 0 W/m2
20:34 51.4 °F 48.6 °F 29.3 in West 9.2 mph 14.5 mph 90% 0.01 in 0 W/m2
20:39 51.4 °F 48.6 °F 29.3 in WSW 6 mph 15.2 mph 90% 0.01 in 0 W/m2
20:44 51.4 °F 48.6 °F 29.3 in West 6.9 mph 19.7 mph 90% 0.01 in 0 W/m2
20:49 51.4 °F 48.6 °F 29.4 in West 3.8 mph 19.7 mph 90% 0.01 in 0 W/m2
20:54 51.6 °F 48.7 °F 29.4 in West 14.5 mph 23.5 mph 90% 0.01 in 0 W/m2
20:59 51.6 °F 48.7 °F 29.4 in WSW 12.1 mph 23.5 mph 90% 0 in 0 W/m2
21:04 51.6 °F 48.7 °F 29.4 in WSW 13 mph 23.5 mph 90% 0 in 0 W/m2
21:09 51.4 °F 48.9 °F 29.4 in WSW 13 mph 20.6 mph 91% 0.01 in 0 W/m2
21:14 51.1 °F 48.7 °F 29.4 in WSW 6.9 mph 20.6 mph 92% 0.01 in 0 W/m2
21:19 51.1 °F 49.1 °F 29.4 in SW 9.2 mph 20.6 mph 93% 0.02 in 0 W/m2
21:24 51.3 °F 49.6 °F 29.4 in WSW 9.8 mph 20.6 mph 94% 0.02 in 0 W/m2
21:29 51.3 °F 49.8 °F 29.4 in WNW 10.7 mph 20.6 mph 95% 0.02 in 0 W/m2
21:34 51.4 °F 50.2 °F 29.4 in West 13.6 mph 20.6 mph 95% 0.04 in 0 W/m2
21:39 51.4 °F 50.2 °F 29.4 in WSW 9.2 mph 19 mph 95% 0.05 in 0 W/m2
21:44 51.4 °F 50.2 °F 29.4 in WSW 14.5 mph 22.8 mph 95% 0.05 in 0 W/m2
21:49 51.4 °F 49.8 °F 29.4 in WSW 13 mph 22.8 mph 94% 0.05 in 0 W/m2
21:54 51.6 °F 50 °F 29.4 in WSW 11.4 mph 24.4 mph 94% 0.05 in 0 W/m2
21:59 51.4 °F 49.8 °F 29.4 in WSW 8.3 mph 24.4 mph 94% 0.06 in 0 W/m2
22:04 51.4 °F 50.2 °F 29.4 in WSW 13.6 mph 24.4 mph 95% 0.06 in 0 W/m2
22:09 51.4 °F 49.8 °F 29.4 in WSW 13 mph 24.4 mph 94% 0.05 in 0 W/m2
22:14 51.4 °F 49.8 °F 29.4 in WSW 13.6 mph 23.5 mph 94% 0.04 in 0 W/m2
22:19 51.4 °F 49.8 °F 29.4 in SW 9.8 mph 20.6 mph 94% 0.04 in 0 W/m2
22:24 51.6 °F 50 °F 29.4 in SW 14.5 mph 20.6 mph 94% 0.04 in 0 W/m2
22:29 52 °F 49.6 °F 29.4 in WSW 12.1 mph 22.8 mph 92% 0.02 in 0 W/m2
22:34 52 °F 49.1 °F 29.4 in West 7.6 mph 22.8 mph 90% 0.02 in 0 W/m2
22:39 52.2 °F 48.9 °F 29.4 in West 12.1 mph 22.1 mph 89% 0.01 in 0 W/m2
22:44 52.3 °F 48.9 °F 29.4 in WSW 14.5 mph 25.9 mph 88% 0.01 in 0 W/m2
22:49 52.3 °F 48.6 °F 29.4 in SW 15.9 mph 25.9 mph 87% 0.01 in 0 W/m2
22:54 52.3 °F 48.6 °F 29.4 in SW 15.9 mph 25.9 mph 87% 0 in 0 W/m2
22:59 52.3 °F 48.6 °F 29.4 in SW 14.5 mph 25.9 mph 87% 0 in 0 W/m2
23:04 52.3 °F 48.6 °F 29.4 in WSW 9.8 mph 25.9 mph 87% 0 in 0 W/m2
23:09 52 °F 48.2 °F 29.4 in WSW 13 mph 25.1 mph 87% 0 in 0 W/m2
23:14 52.2 °F 48.4 °F 29.4 in WSW 15.2 mph 22.1 mph 87% 0 in 0 W/m2
23:19 52.2 °F 48 °F 29.4 in SW 13 mph 24.4 mph 86% 0 in 0 W/m2
23:24 52.2 °F 48 °F 29.4 in WSW 12.1 mph 24.4 mph 86% 0 in 0 W/m2
23:29 52.3 °F 48.4 °F 29.4 in WSW 14.5 mph 24.4 mph 86% 0 in 0 W/m2
23:34 52.2 °F 48 °F 29.4 in SW 15.9 mph 25.9 mph 86% 0 in 0 W/m2
23:39 52.3 °F 48 °F 29.4 in SW 13 mph 25.9 mph 85% 0 in 0 W/m2
23:44 52.2 °F 47.8 °F 29.4 in WSW 13 mph 25.9 mph 85% 0 in 0 W/m2
23:49 52.3 °F 48 °F 29.4 in WSW 9.8 mph 25.1 mph 85% 0 in 0 W/m2
23:54 52 °F 47.7 °F 29.5 in WSW 11.4 mph 25.1 mph 85% 0 in 0 W/m2
23:59 52 °F 47.3 °F 29.4 in WSW 13 mph 25.9 mph 84% 0 in 0 W/m2
Northern Hawkes Bay. New Zealand Historic Data
Compliments of Weather Underground - 2 mb